Weather History for Luxor, Egypt

Change the Weather History Date:

Wednesday, February 13, 2013

  Actual Average Record
Temperature  
Mean Temperature 60 °F -  
Max Temperature 77 °F 77 °F 87 °F (2012)
Min Temperature 43 °F 50 °F 42 °F (1997)
Degree Days  
Heating Degree Days 5    
Growing Degree Days 10 (Base 50)    
Moisture  
Dew Point 41 °F    
Average Humidity 48    
Maximum Humidity 82    
Minimum Humidity 26    
Precipitation  
Precipitation 0.00 in 0.00 in - ()
Sea Level Pressure  
Sea Level Pressure 29.96 in    
Wind  
Wind Speed 0 mph ()    
Max Wind Speed 2 mph    
Max Gust Speed -    
Visibility 5.0 miles    
Events      
Averages and records for this station are not official NWS values.
T = Trace of Precipitation, MM = Missing Value Source: Averaged Metar Reports

Daily Weather History Graph

Daily Weather History Graph

Search for Another Location

Airport:

Trip Planner

Search our weather history database for the weather conditions in past years. The results will help you decide how hot, cold, wet, or windy it might be!

Date:

Astronomy

Feb. 13, 2013 Rise Set
Actual Time 6:25 AM EET 5:41 PM EET
Civil Twilight 6:02 AM EET 6:04 PM EET
Nautical Twilight 5:35 AM EET 6:32 PM EET
Astronomical Twilight 5:08 AM EET 6:58 PM EET
Moon 8:09 AM EET (2/13) 8:54 PM EET (2/13)
Length of Visible Light 12h 02m
Length of Day
11h 15m
Waxing Crescent, 11% of the Moon is Illuminated
Feb 13
Waxing Crescent
Feb 17
First Quarter
Feb 25
Full
Mar 4
Last Quarter
Mar 11
New

Hourly Weather History & Observations

Time (EET) Temp. Dew Point Humidity Pressure Visibility Wind Dir Wind Speed Gust Speed Precip Events Conditions
12:00 AM 55.4 °F 35.6 °F 47% 29.98 in - SSE 2.3 mph - N/A   Clear
1:00 AM 51.8 °F 35.6 °F 54% 29.98 in - Calm Calm - N/A   Clear
2:00 AM 51 °F 33 °F 38% 29.99 in 6 mi Calm Calm - -  
2:00 AM 51.8 °F 33.8 °F 50% 29.98 in - Calm Calm - N/A   Clear
3:00 AM 48.2 °F 33.8 °F 58% 29.98 in - Calm Calm - N/A   Clear
4:00 AM 48.2 °F 32.0 °F 54% 29.98 in - Calm Calm - N/A   Clear
5:00 AM 48.2 °F 35.6 °F 62% 29.98 in - Calm Calm - N/A   Clear
6:00 AM 48.2 °F 35.6 °F 62% 29.98 in - Calm Calm - N/A   Clear
7:00 AM 46.4 °F 35.6 °F 66% 30.01 in - Calm Calm - N/A   Clear
8:00 AM 51 °F 36 °F 44% 30.05 in 6 mi Calm Calm - -   Clear
8:00 AM 50.0 °F 44.6 °F 82% 30.09 in - Calm Calm - N/A   Clear
9:00 AM 57.2 °F 41.0 °F 55% 30.04 in 5.0 mi Calm Calm - N/A   Unknown
10:00 AM 62.6 °F 44.6 °F 52% 30.04 in 5.0 mi Calm Calm - N/A   Unknown
11:00 AM 68.0 °F 46.4 °F 46% 30.01 in 3.7 mi Calm Calm - N/A   Unknown
12:00 PM 69.8 °F 46.4 °F 43% 29.98 in 3.7 mi Calm Calm - N/A   Unknown
1:00 PM 73.4 °F 48.2 °F 41% 29.95 in 3.7 mi Calm Calm - N/A   Unknown
2:00 PM 75 °F 47 °F 26% 29.93 in 6 mi Calm Calm - -   Clear
2:00 PM 75.2 °F 46.4 °F 36% 29.92 in - Calm Calm - N/A   Clear
3:00 PM 77.0 °F 46.4 °F 34% 29.92 in - NNW 2.3 mph - N/A   Clear
4:00 PM 77.0 °F 48.2 °F 36% 29.92 in - NW 2.3 mph - N/A   Clear
5:00 PM 75.2 °F 44.6 °F 34% 29.92 in - WNW 2.3 mph - N/A   Clear
6:00 PM 69.8 °F 48.2 °F 46% 29.89 in - West 2.3 mph - N/A   Clear
7:00 PM 69.8 °F 46.4 °F 43% 29.89 in - Calm Calm - N/A   Clear
8:00 PM 65 °F 46 °F 38% 29.91 in 6 mi Calm Calm - -   Clear
8:00 PM 64.4 °F 46.4 °F 52% 29.92 in - Calm Calm - N/A   Clear
9:00 PM 64.4 °F 42.8 °F 45% 29.92 in - Calm Calm - N/A   Clear
10:00 PM 60.8 °F 37.4 °F 42% 29.92 in - Calm Calm - N/A   Clear
11:00 PM 57.2 °F 41.0 °F 55% 29.92 in - Calm Calm - N/A   Clear